Location: *
(53.4003°S, 165.3236°W)
Time: 02:01:31
(UTC+00:00)

Cosmos 1048 Rocket - Pass Details

Date: 11 December 2023
Orbit: 740 x 790 km, 74.0° (Epoch: 24 February)

Event Time Altitude Azimuth Distance (km) Brightness Sun altitude
Rises 12:33:49 0° 207° (SSW) 3,327 7.9 -10.6°
Reaches altitude 10° 12:36:14 10° 206° (SSW) 2,387 7.1 -10.5°
Maximum altitude 12:41:42 89° 114° (ESE) 800 4.1 -10.1°
Drops below altitude 10° 12:47:02 10° 24° (NNE) 2,332 6.1 -9.8°
Sets 12:49:23 0° 24° (NNE) 3,244 6.9 -9.6°
